Location: *
(44.1392°N, 4.8079°E)
Time: 08:29:27
(UTC+00:00)

Cosmos 2292 Rocket - Pass Details

Date: 21 June 2021
Orbit: 381 x 1445 km, 83.0° (Epoch: 31 July)

Event Time Altitude Azimuth Distance (km) Brightness Sun altitude
Exits shadow 02:16:40 29° 221° (SW) 732 3.4 -13.8°
Maximum altitude 02:17:50 49° 280° (W) 503 2.9 -13.7°
Drops below altitude 10° 02:20:45 10° 357° (N) 1,433 6.2 -13.3°
Sets 02:22:50 0° 3° (N) 2,346 7.5 -13.1°
